Location: Star Dogged Moon Observatory
(29.7756°N, 82.0783°W)
Time: 09:30:00
(UTC-04:00)

ARGOS - Visible Passes

Search period start: 16 August 2017 00:00
Search period end: 26 August 2017 00:00
Orbit: 820 x 835 km, 98.6° (Epoch: 15 August)

Date Brightness Start Highest point End Pass type
(mag) Time Alt. Az. Time Alt. Az. Time Alt. Az.
16 Aug 3.6 22:41:52 54° N 22:41:52 54° N 22:45:59 10° N visible
17 Aug 3.7 22:23:10 44° NE 22:23:10 44° NE 22:27:17 10° N visible
18 Aug 5.8 00:04:42 12° WNW 00:04:42 12° WNW 00:05:26 10° WNW visible
18 Aug 4.1 22:04:28 31° NE 22:04:28 31° NE 22:08:23 10° N visible
18 Aug 5.5 23:46:00 18° WNW 23:46:00 18° WNW 23:48:03 10° NW visible
19 Aug 4.6 21:45:46 21° ENE 21:45:46 21° ENE 21:49:15 10° NNE visible
19 Aug 5.0 23:27:18 26° NW 23:27:18 26° NW 23:30:06 10° NNW visible
20 Aug 5.0 21:27:04 14° ENE 21:27:04 14° ENE 21:29:36 10° NE visible
20 Aug 4.5 23:08:36 35° NW 23:08:36 35° NW 23:11:51 10° NNW visible
21 Aug 4.1 22:49:54 43° NNW 22:49:54 43° NNW 22:53:25 10° NNW visible
22 Aug 4.0 22:31:12 41° NNE 22:31:12 41° NNE 22:34:48 10° N visible
23 Aug 4.2 22:12:31 32° NE 22:12:31 32° NE 22:15:59 10° N visible
23 Aug 5.8 23:54:03 14° WNW 23:54:03 14° WNW 23:55:05 10° NW visible
24 Aug 4.5 21:53:49 24° NE 21:53:49 24° NE 21:56:58 10° NNE visible
24 Aug 5.4 23:35:21 20° NW 23:35:21 20° NW 23:37:19 10° NW visible
25 Aug 4.9 21:35:08 16° NE 21:35:08 16° NE 21:37:35 10° NNE visible
25 Aug 5.0 23:16:39 27° NW 23:16:39 27° NW 23:19:11 10° NNW visible
